This is the latest recevied weather packets stored in our database for station/object DB0DUS-10. If no packets are shown the sender has not sent any weather packets the latest 10 day(s).
| Time | Temp. | Humidity | Pressure | Rain* | Wind** | Luminosity | Snow |
|---|---|---|---|---|---|---|---|
| 1777239503 | 10° C | 55% | 1024.6 hPa | 0 mm | - | - | - |
| 1777238604 | 10.56° C | 53% | 1024.6 hPa | 0 mm | - | - | - |
| 1777237704 | 11.11° C | 51% | 1024.7 hPa | 0 mm | - | - | - |
| 1777237104 | 11.11° C | 51% | 1024.7 hPa | 0 mm | - | - | - |
| 1777235904 | 11.67° C | 50% | 1024.8 hPa | 0 mm | - | - | - |
| 1777235651 | 11.67° C | 49% | 1024.8 hPa | 0 mm | - | - | - |
| 1777235605 | 11.67° C | 49% | 1024.8 hPa | 0 mm | - | - | - |
| 1777234104 | 12.22° C | 47% | 1024.7 hPa | 0 mm | - | - | - |
| 1777232605 | 13.33° C | 44% | 1024.6 hPa | 0 mm | - | - | - |
| 1777232304 | 13.33° C | 43% | 1024.6 hPa | 0 mm | - | - | - |
| 1777231104 | 13.89° C | 41% | 1024.5 hPa | 0 mm | - | - | - |
| 1777230504 | 14.44° C | 39% | 1024.4 hPa | 0 mm | - | - | - |
| 1777228704 | 15.56° C | 34% | 1024.2 hPa | 0 mm | - | - | - |
| 1777228105 | 16.11° C | 33% | 1024.1 hPa | 0 mm | - | - | - |
| 1777226904 | 17.22° C | 30% | 1024 hPa | 0 mm | - | - | - |
| 1777226605 | 17.22° C | 30% | 1023.8 hPa | 0 mm | - | - | - |
| 1777225104 | 18.33° C | 29% | 1023.9 hPa | 0 mm | - | - | - |
| 1777223605 | 19.44° C | 26% | 1023.9 hPa | 0 mm | - | - | - |
| 1777223304 | 19.44° C | 26% | 1023.9 hPa | 0 mm | - | - | - |
| 1777222105 | 20.56° C | 25% | 1023.9 hPa | 0 mm | - | - | - |
| 1777221504 | 21.11° C | 25% | 1023.9 hPa | 0 mm | - | - | - |
| 1777220605 | 22.22° C | 23% | 1024 hPa | 0 mm | - | - | - |
| 1777219704 | 23.33° C | 22% | 1024 hPa | 0 mm | - | - | - |
| 1777219106 | 23.89° C | 21% | 1024 hPa | 0 mm | - | - | - |
| 1777217904 | 25° C | 18% | 1024.2 hPa | 0 mm | - | - | - |
* Rain latest hour (hover to see other rain measurements)
** Current wind speed in m/s (hover to see current wind gust speed)